Weather History for Marshfield, MA

Change the Weather History Date:

Tuesday, February 5, 2013

  Actual Average (KPYM) Record (KPYM)
Temperature  
Mean Temperature 28 °F -  
Max Temperature 32 °F 36 °F 69 °F (1991)
Min Temperature 24 °F 16 °F -4 °F (1978)
Degree Days  
Heating Degree Days 37    
Moisture  
Dew Point 18 °F    
Average Humidity 66    
Maximum Humidity 93    
Minimum Humidity 51    
Precipitation  
Precipitation 0.00 in - - ()
Sea Level Pressure  
Sea Level Pressure 29.99 in    
Wind  
Wind Speed 4 mph (NNE)    
Max Wind Speed 8 mph    
Max Gust Speed -    
Visibility 9 miles    
Events Rain , Snow    
Averages and records for this station are not official NWS values.
T = Trace of Precipitation, MM = Missing Value Source: NWS Daily Summary

Daily Weather History Graph

Daily Weather History Graph

Search for Another Location

Airport:

Trip Planner

Search our weather history database for the weather conditions in past years. The results will help you decide how hot, cold, wet, or windy it might be!

Date:

Astronomy

Feb. 05, 2013 Rise Set
Actual Time 6:51 AM EST 5:02 PM EST
Civil Twilight 6:21 AM EST 5:32 PM EST
Nautical Twilight 5:48 AM EST 6:05 PM EST
Astronomical Twilight 5:15 AM EST 6:38 PM EST
Moon 2:31 AM EST (2/5) 12:15 PM EST (2/5)
Length of Visible Light 11h 10m
Length of Day
10h 11m
Waning Crescent, 27% of the Moon is Illuminated
Feb 5
Waning Crescent
Feb 10
New
Feb 17
First Quarter
Feb 25
Full
Mar 4
Last Quarter

Hourly Weather History & Observations

Time (EST) Temp. Windchill Dew Point Humidity Pressure Visibility Wind Dir Wind Speed Gust Speed Precip Events Conditions
12:15 AM 26.6 °F 19.1 °F 10.4 °F 51% 29.97 in 10.0 mi WSW 6.9 mph - N/A   Overcast
12:35 AM 26.6 °F 18.2 °F 10.4 °F 51% 29.96 in 10.0 mi WSW 8.1 mph - N/A   Overcast
12:55 AM 26.6 °F 18.2 °F 10.4 °F 51% 29.97 in 10.0 mi West 8.1 mph - N/A   Overcast
1:15 AM 26.6 °F 18.2 °F 10.4 °F 51% 29.98 in 10.0 mi West 8.1 mph - N/A   Overcast
1:35 AM 26.6 °F 19.1 °F 10.4 °F 51% 29.98 in 10.0 mi West 6.9 mph - N/A   Overcast
1:55 AM 26.6 °F 20.0 °F 10.4 °F 51% 29.98 in 10.0 mi West 5.8 mph - N/A   Overcast
2:15 AM 26.6 °F 21.2 °F 10.4 °F 51% 29.98 in 10.0 mi West 4.6 mph - N/A   Mostly Cloudy
2:35 AM 26.6 °F 20.0 °F 10.4 °F 51% 29.98 in 10.0 mi West 5.8 mph - N/A   Clear
2:55 AM 26.6 °F 21.2 °F 10.4 °F 51% 29.98 in 10.0 mi West 4.6 mph - N/A   Partly Cloudy
3:15 AM 26.6 °F 22.6 °F 10.4 °F 51% 29.99 in 10.0 mi WSW 3.5 mph - N/A   Mostly Cloudy
3:35 AM 26.6 °F - 10.4 °F 51% 29.99 in 10.0 mi Calm Calm - N/A   Scattered Clouds
3:55 AM 26.6 °F - 10.4 °F 51% 29.99 in 10.0 mi Calm Calm - N/A   Scattered Clouds
4:15 AM 24.8 °F - 10.4 °F 54% 29.99 in 10.0 mi Calm Calm - N/A   Partly Cloudy
4:55 AM 26.6 °F - 12.2 °F 55% 30.00 in 10.0 mi Calm Calm - N/A   Clear
5:15 AM 24.8 °F - 12.2 °F 59% 30.00 in 10.0 mi Calm Calm - N/A   Clear
5:35 AM 24.8 °F - 14.0 °F 64% 30.00 in 10.0 mi Calm Calm - N/A   Clear
5:55 AM 24.8 °F - 14.0 °F 64% 30.00 in 10.0 mi Calm Calm - N/A   Clear
6:15 AM 24.8 °F - 14.0 °F 64% 30.00 in 10.0 mi Calm Calm - N/A   Clear
7:15 AM 26.6 °F - 14.0 °F 59% 30.02 in 10.0 mi Calm Calm - N/A   Clear
7:35 AM 24.8 °F - 15.8 °F 69% 30.02 in 10.0 mi Calm Calm - N/A   Clear
7:55 AM 26.6 °F - 17.6 °F 69% 30.03 in 10.0 mi Calm Calm - N/A   Clear
8:15 AM 26.6 °F - 14.0 °F 59% 30.04 in 10.0 mi Calm Calm - N/A   Scattered Clouds
8:35 AM 26.6 °F - 12.2 °F 55% 30.04 in 10.0 mi Calm Calm - N/A   Scattered Clouds
8:55 AM 26.6 °F 22.6 °F 12.2 °F 55% 30.04 in 10.0 mi West 3.5 mph - N/A   Clear
9:15 AM 28.4 °F 22.2 °F 12.2 °F 51% 30.04 in 10.0 mi WNW 5.8 mph - N/A   Clear
9:35 AM 28.4 °F 24.6 °F 12.2 °F 51% 30.04 in 10.0 mi West 3.5 mph - N/A   Clear
9:55 AM 28.4 °F - 12.2 °F 51% 30.04 in 10.0 mi Calm Calm - N/A   Mostly Cloudy
10:15 AM 28.4 °F - 12.2 °F 51% 30.05 in 10.0 mi Calm Calm - N/A   Mostly Cloudy
10:35 AM 28.4 °F 22.2 °F 12.2 °F 51% 30.05 in 10.0 mi NW 5.8 mph - N/A   Partly Cloudy
10:55 AM 28.4 °F 24.6 °F 12.2 °F 51% 30.04 in 10.0 mi NW 3.5 mph - N/A   Clear
11:15 AM 28.4 °F 24.6 °F 14.0 °F 55% 30.04 in 10.0 mi NW 3.5 mph - N/A   Partly Cloudy
11:35 AM 28.4 °F - 14.0 °F 55% 30.03 in 10.0 mi Calm Calm - N/A   Partly Cloudy
11:55 AM 28.4 °F - 14.0 °F 55% 30.03 in 10.0 mi Calm Calm - N/A   Clear
12:15 PM 28.4 °F - 14.0 °F 55% 30.02 in 10.0 mi Calm Calm - N/A   Mostly Cloudy
12:35 PM 28.4 °F - 15.8 °F 59% 30.02 in 10.0 mi Calm Calm - N/A   Overcast
12:55 PM 28.4 °F - 15.8 °F 59% 30.01 in 10.0 mi Calm Calm - N/A   Overcast
1:15 PM 28.4 °F 24.6 °F 15.8 °F 59% 30.01 in 10.0 mi North 3.5 mph - N/A   Overcast
1:35 PM 28.4 °F - 17.6 °F 64% 30.00 in 10.0 mi Calm Calm - N/A   Overcast
1:55 PM 28.4 °F 23.3 °F 17.6 °F 64% 30.00 in 10.0 mi NE 4.6 mph - N/A   Overcast
2:15 PM 28.4 °F 24.6 °F 19.4 °F 69% 30.00 in 10.0 mi ENE 3.5 mph - N/A   Overcast
2:35 PM 28.4 °F 24.6 °F 19.4 °F 69% 30.00 in 10.0 mi ENE 3.5 mph - N/A   Overcast
2:55 PM 28.4 °F 23.3 °F 19.4 °F 69% 30.00 in 10.0 mi East 4.6 mph - N/A   Overcast
3:15 PM 30.2 °F 25.4 °F 19.4 °F 64% 29.99 in 10.0 mi ESE 4.6 mph - N/A   Overcast
3:35 PM 30.2 °F 24.3 °F 19.4 °F 64% 29.98 in 10.0 mi East 5.8 mph - N/A   Overcast
3:55 PM 30.2 °F 24.3 °F 19.4 °F 64% 29.97 in 10.0 mi East 5.8 mph - N/A   Overcast
4:15 PM 30.2 °F 25.4 °F 19.4 °F 64% 29.97 in 10.0 mi East 4.6 mph - N/A   Overcast
4:35 PM 30.2 °F 23.4 °F 19.4 °F 64% 29.97 in 10.0 mi East 6.9 mph - N/A   Overcast
4:55 PM 30.2 °F 26.7 °F 19.4 °F 64% 29.97 in 10.0 mi East 3.5 mph - N/A   Overcast
5:15 PM 30.2 °F 26.7 °F 19.4 °F 64% 29.98 in 10.0 mi East 3.5 mph - N/A   Overcast
5:35 PM 30.2 °F 26.7 °F 19.4 °F 64% 29.97 in 10.0 mi East 3.5 mph - N/A   Overcast
5:55 PM 30.2 °F - 21.2 °F 69% 29.97 in 10.0 mi Calm Calm - N/A   Mostly Cloudy
6:15 PM 30.2 °F 26.7 °F 21.2 °F 69% 29.97 in 10.0 mi East 3.5 mph - N/A   Mostly Cloudy
6:35 PM 30.2 °F 26.7 °F 21.2 °F 69% 29.98 in 10.0 mi East 3.5 mph - N/A   Mostly Cloudy
6:55 PM 30.2 °F - 23.0 °F 75% 29.98 in 7.0 mi Calm Calm - N/A Rain Light Freezing Rain
7:15 PM 30.2 °F - 26.6 °F 86% 29.98 in 2.0 mi Calm Calm - N/A Snow Light Snow
7:35 PM 30.2 °F - 26.6 °F 86% 29.97 in 2.0 mi Calm Calm - N/A Snow Light Snow
7:55 PM 30.2 °F - 28.4 °F 93% 29.96 in 2.5 mi Calm Calm - N/A Snow Light Snow
8:15 PM 30.2 °F 25.4 °F 28.4 °F 93% 29.97 in 1.8 mi East 4.6 mph - N/A Snow Light Snow
8:35 PM 30.2 °F 26.7 °F 28.4 °F 93% 29.97 in 2.0 mi East 3.5 mph - N/A Snow Light Snow
8:55 PM 30.2 °F 26.7 °F 28.4 °F 93% 29.97 in 2.5 mi ENE 3.5 mph - N/A Snow Light Snow
9:15 PM 30.2 °F - 28.4 °F 93% 29.97 in 4.0 mi Calm Calm - N/A Rain Light Freezing Rain
9:35 PM 30.2 °F - 28.4 °F 93% 29.97 in 10.0 mi Calm Calm - N/A Snow Light Snow
9:55 PM 30.2 °F - 28.4 °F 93% 29.97 in 5.0 mi Calm Calm - N/A Snow Light Snow
10:15 PM 30.2 °F - 28.4 °F 93% 29.96 in 9.0 mi Calm Calm - N/A Rain Light Freezing Rain
10:35 PM 32.0 °F 28.7 °F 28.4 °F 87% 29.95 in 10.0 mi NNE 3.5 mph - N/A   Mostly Cloudy
10:55 PM 32.0 °F 28.7 °F 30.2 °F 93% 29.94 in 10.0 mi NNE 3.5 mph - N/A   Overcast
11:15 PM 32.0 °F 28.7 °F 30.2 °F 93% 29.95 in 9.0 mi North 3.5 mph - N/A   Light Drizzle
11:35 PM 32.0 °F 28.7 °F 30.2 °F 93% 29.94 in 9.0 mi North 3.5 mph - N/A   Overcast
11:55 PM 32.0 °F 28.7 °F 30.2 °F 93% 29.94 in 10.0 mi NNW 3.5 mph - N/A Rain Light Rain